Погода в Большом Рое

Россия / Кировская область     56°51′42″N   50°23′27″E
темп.,
°C
ветер,
м/с
пор.,
м/с
влажн.,
%
обл.,
%
осадки,
мм/ч
давл.,
гПа
погр.,
м
28 февраля, вс
вс2800:00−15с489687 0.0 1005204
03:00−18с479687 0.1 1007196
06:00−17с4796100 0.3 1008225
09:00−17с469591 0.3 1009256
12:00−14с469196 0.0 1010409
15:00−13с579098 0.0 1011539
18:00−17ссз3696100 0.0 101397
21:00−20с349982 0.1 101556
1 марта, пн
пн100:00−21ссз34980 0.0 101754
03:00−23ссз33970 0.0 101936
06:00−24ссз33980 0.0 102041
09:00−20ссз23961 0.0 1021133
12:00−15зсз238880 0.0 1020294
15:00−13з238880 0.0 1019314
18:00−17ююз349542 0.0 101744
21:00−15ююз499568 0.0 1015235
2 марта, вт
вт200:00−13ююз61194100 0.0 1011315
03:00−10ююз71394100 0.7 1006481
06:00−7ююз71394100 0.9 1002513
09:00−4ююз61195100 2.0 999509
12:000зюз59100100 1.1 997489
15:000з5997100 1.4 996662
18:00−2зюз41096100 0.1 996290
21:00−2зсз4996100 0.6 997342
3 марта, ср
ср300:00−3зсз389782 0.2 998311
03:00−5зсз5109589 0.4 1000303
06:00−7зсз4109596 0.3 1000298
09:00−7сз599398 0.4 1002442
12:00−6сз6890100 0.1 1003606
15:00−5сз5888100 0.1 1004681
18:00−8зсз4994100 0.0 1004226
21:00−10зсз489597 0.0 1006182
4 марта, чт
чт400:00−10зюз3695100 0.0 100591
03:00−8зюз41094100 0.2 1004302
06:00−11юз489581 0.0 1003156
09:00−8юз599489 0.1 1001318
12:00−5ююз71293100 0.2 998551
15:00−4ююз91493100 0.9 993891
18:00−1юз91593100 1.1 9891057
21:00−1зюз101695100 1.7 9891122